Date,TemperatureHighF,TemperatureAvgF,TemperatureLowF,DewpointHighF,DewpointAvgF,DewpointLowF,HumidityHigh,HumidityAvg,HumidityLow,PressureMaxIn,PressureMinIn,WindSpeedMaxMPH,WindSpeedAvgMPH,GustSpeedMaxMPH,PrecipitationSumIn
2013-1-1,23.1,15.2,6.5,13.0,8.3,2.0,86,75,54,30.23,30.04,6,2,8,0.00
2013-1-2,33.7,24.8,14.5,29.0,20.3,10.0,86,83,77,30.12,29.96,9,2,15,0.00
2013-1-3,30.5,23.9,17.0,27.0,19.4,14.0,87,83,75,30.30,30.12,19,5,22,0.00
2013-1-4,38.6,24.5,16.6,23.0,17.8,13.0,88,77,53,30.22,30.04,7,2,9,0.00
2013-1-5,35.1,25.7,18.4,29.0,20.4,15.0,90,80,69,30.10,29.88,25,5,32,0.00
2013-1-6,38.8,26.5,13.2,27.0,20.0,11.0,89,77,60,30.23,30.01,16,4,23,0.00
2013-1-7,42.4,33.3,26.1,30.0,26.2,23.0,91,75,61,30.01,29.82,19,4,26,0.00
2013-1-8,43.4,34.2,23.8,33.0,28.3,22.0,93,80,65,30.00,29.71,11,3,17,0.00
2013-1-9,46.1,36.4,27.9,37.0,30.5,24.0,88,79,67,30.30,30.00,10,2,15,0.00
2013-1-10,39.3,37.0,33.2,37.0,32.1,26.0,96,83,65,30.20,29.56,16,7,19,0.05
2013-1-11,53.9,42.8,28.4,48.0,39.6,22.0,97,88,75,29.60,29.23,26,9,36,0.01
2013-1-12,27.8,19.7,11.9,22.0,10.5,5.0,78,68,58,30.03,29.61,25,13,39,0.00
2013-1-13,21.5,13.5,8.1,8.0,5.3,3.0,82,71,50,30.27,30.03,18,7,24,0.00
2013-1-14,29.0,17.1,6.1,16.0,9.1,2.0,86,72,49,30.39,30.26,7,1,12,0.00
2013-1-15,36.2,24.4,13.9,19.0,14.8,9.0,83,68,45,30.27,29.94,12,3,13,0.00
2013-1-16,50.4,36.4,23.6,35.0,27.4,17.0,85,71,55,30.11,29.80,15,5,22,0.00
2013-1-17,33.9,28.9,22.7,32.0,26.8,21.0,94,92,83,30.34,30.11,6,2,11,0.00
2013-1-18,53.0,39.8,28.6,35.0,30.8,26.0,91,72,48,30.17,29.75,12,4,18,0.00
2013-1-19,52.8,37.9,23.2,33.0,27.8,14.0,78,68,47,30.20,29.72,20,6,29,0.00
2013-1-20,23.0,17.9,13.3,14.0,9.2,4.0,82,69,49,30.32,30.18,11,5,18,0.00
2013-1-21,15.5,11.2,6.6,11.0,-0.7,-6.0,82,59,50,30.38,30.28,17,7,26,0.00
2013-1-22,21.6,14.3,11.0,14.0,8.3,1.0,85,77,63,30.32,30.16,10,4,12,0.00
2013-1-23,30.2,19.4,11.3,20.0,12.0,2.0,84,73,64,30.41,30.07,18,6,21,0.00
2013-1-24,19.7,11.5,2.5,8.0,0.2,-5.0,73,61,50,30.46,30.10,16,8,20,0.00
2013-1-25,47.8,29.6,14.2,29.0,18.5,7.0,80,64,46,30.12,30.02,15,4,16,0.00
2013-1-26,48.5,31.5,16.9,29.0,21.9,12.0,86,69,47,30.13,29.88,20,11,25,0.00
2013-1-27,42.7,38.8,34.9,42.0,36.2,25.0,96,91,62,29.88,29.54,19,9,25,0.15
2013-1-28,46.2,39.3,33.7,45.0,38.5,33.0,97,97,96,29.73,29.40,10,4,12,0.01
2013-1-29,40.5,34.3,31.0,40.0,32.2,30.0,97,92,85,29.55,29.40,16,9,28,0.01
2013-1-30,30.5,22.6,14.1,29.0,17.7,10.0,94,82,67,29.83,29.49,26,13,40,0.00
2013-1-31,16.4,7.9,-0.3,11.0,-0.2,-6.0,79,70,61,30.36,29.83,26,11,36,0.00
2013-2-1,26.9,13.7,-3.9,19.0,7.0,-8.0,82,75,68,30.36,29.98,18,6,23,0.00
2013-2-2,39.5,30.5,24.9,33.0,24.9,19.0,87,80,70,30.09,29.92,19,4,33,0.00
2013-2-3,42.3,33.9,22.2,31.0,25.2,16.0,82,71,57,30.10,29.65,20,6,30,0.00
2013-2-4,35.3,27.8,23.1,30.0,23.3,20.0,89,83,75,29.89,29.63,20,5,27,0.00
2013-2-5,49.7,36.9,25.9,35.0,28.7,24.0,91,74,50,29.93,29.72,18,4,25,0.00
2013-2-6,54.8,41.3,31.0,41.0,33.9,27.0,85,76,57,29.94,29.68,17,7,23,0.00
2013-2-7,39.3,34.0,29.7,36.0,29.9,24.0,90,84,80,30.11,29.73,18,9,28,0.00
2013-2-8,32.4,28.8,25.7,28.0,25.2,23.0,91,86,79,30.22,30.02,15,7,20,0.00
2013-2-9,48.5,37.5,29.3,40.0,32.8,27.0,91,83,71,30.04,29.52,25,15,31,0.00
2013-2-10,46.1,37.8,31.6,43.0,33.6,24.0,96,85,73,29.65,29.12,29,15,40,0.01
2013-2-11,37.1,30.8,23.8,27.0,23.8,21.0,89,75,64,30.03,29.67,31,10,40,0.00
2013-2-12,48.0,33.5,20.5,28.0,23.0,18.0,92,68,42,30.03,29.77,12,2,15,0.00
2013-2-13,53.9,38.7,24.3,33.0,27.2,21.0,87,66,41,29.78,29.59,9,2,14,0.00
2013-2-14,44.9,37.1,23.8,33.0,28.0,17.0,92,71,46,30.13,29.65,24,9,31,0.00
2013-2-15,32.1,23.2,14.9,25.0,16.9,11.0,92,78,52,30.24,30.14,15,5,19,0.00
2013-2-16,32.3,23.5,8.4,26.0,18.6,6.0,91,82,71,30.23,29.89,10,4,14,0.00
2013-2-17,55.4,38.1,23.4,38.0,29.1,19.0,86,71,52,29.89,29.41,19,11,26,0.00
2013-2-18,43.7,32.4,22.0,34.0,25.9,16.0,94,77,64,29.93,29.39,30,12,43,0.00
2013-2-19,26.5,17.5,10.2,17.0,5.6,2.0,78,61,35,30.28,29.93,23,13,33,0.00
2013-2-20,25.1,15.9,5.2,10.0,4.7,-1.0,76,62,48,30.29,30.11,17,8,21,0.00
2013-2-21,24.6,22.1,21.2,21.0,15.7,9.0,92,77,57,30.14,29.72,21,12,26,0.00
2013-2-22,22.5,18.9,7.9,20.0,14.8,5.0,92,84,73,29.92,29.72,16,7,24,0.00
2013-2-23,36.9,21.5,4.2,28.0,16.2,1.0,90,80,67,29.91,29.73,9,3,12,0.03
2013-2-24,39.9,30.5,18.1,30.0,24.7,16.0,92,80,64,29.92,29.78,7,3,9,0.00
2013-2-25,35.4,30.9,27.6,29.0,26.7,25.0,91,84,74,29.94,29.76,10,5,14,0.00
2013-2-26,32.4,29.3,26.6,29.0,26.5,25.0,93,89,85,29.77,29.64,17,10,21,0.00
2013-2-27,38.0,30.7,25.1,28.0,24.5,21.0,89,78,62,29.95,29.75,24,14,35,0.00
2013-2-28,32.4,28.2,25.7,26.0,23.1,21.0,85,81,74,30.10,29.96,20,12,27,0.00
2013-3-1,28.5,26.0,23.8,22.0,19.6,17.0,84,77,66,30.23,30.08,17,9,22,0.00
2013-3-2,36.1,27.7,19.1,25.0,20.1,15.0,84,73,55,30.23,29.96,10,5,14,0.00
2013-3-3,40.9,32.9,26.0,33.0,27.0,23.0,87,79,70,29.96,29.58,22,11,28,0.00
2013-3-4,42.8,35.5,29.8,33.0,28.9,25.0,86,77,66,29.88,29.50,18,9,25,0.00
2013-3-5,34.0,28.3,24.5,24.0,19.5,16.0,76,70,61,30.26,29.86,33,17,43,0.00
2013-3-6,38.4,28.6,21.4,25.0,20.6,16.0,84,73,56,30.30,30.11,15,6,20,0.00
2013-3-7,50.8,34.6,23.4,33.0,26.3,19.0,86,73,49,30.14,29.95,22,13,31,0.00
2013-3-8,55.0,41.6,29.7,41.0,33.6,26.0,87,74,56,30.04,29.73,24,12,24,0.06
2013-3-9,54.4,46.8,36.6,51.0,44.0,35.0,93,89,85,29.74,29.36,24,10,34,0.06
2013-3-10,36.4,28.7,23.1,34.0,26.7,21.0,94,92,89,29.80,29.51,29,16,37,0.04
2013-3-11,30.8,24.1,20.4,22.0,18.2,15.0,90,78,62,29.88,29.75,21,9,28,0.00
2013-3-12,33.5,28.8,21.3,26.0,22.0,18.0,91,76,67,30.20,29.89,24,11,33,0.00
2013-3-13,36.2,26.6,14.1,25.0,19.5,12.0,91,75,56,30.32,30.11,11,4,13,0.00
2013-3-14,56.4,42.1,31.0,43.0,33.3,24.0,86,72,58,30.10,29.90,12,5,15,0.00
2013-3-15,61.9,47.1,36.5,46.0,39.6,34.0,92,77,55,29.91,29.53,11,4,16,0.00
2013-3-16,40.6,33.3,29.7,38.0,28.1,24.0,91,81,70,30.03,29.67,19,9,27,0.00
2013-3-17,45.9,34.3,24.5,34.0,27.1,20.0,90,76,60,30.00,29.60,19,10,24,0.00
2013-3-18,37.7,33.9,27.3,34.0,23.9,17.0,94,69,44,29.90,29.58,30,11,42,0.06
2013-3-19,50.6,34.0,21.4,29.0,20.4,15.0,80,59,32,30.18,29.90,25,5,30,0.00
2013-3-20,34.9,25.1,16.8,17.0,10.6,5.0,76,56,37,30.27,29.98,18,9,26,0.00
2013-3-21,32.2,27.0,20.8,19.0,14.8,12.0,76,61,44,29.97,29.78,13,8,17,0.00
2013-3-22,34.9,31.2,26.8,22.0,20.0,18.0,76,64,52,29.89,29.82,10,5,12,0.00
2013-3-23,36.9,31.9,28.1,30.0,25.7,21.0,93,79,61,29.96,29.88,13,5,17,0.00
2013-3-24,29.1,26.8,25.3,26.0,22.2,20.0,92,83,73,29.95,29.88,25,13,31,0.00
2013-3-25,30.6,26.9,24.1,24.0,22.1,19.0,90,82,70,30.21,29.95,22,12,27,0.00
2013-3-26,41.1,28.3,16.8,26.0,19.8,13.0,87,72,50,30.26,30.10,8,3,13,0.00
2013-3-27,52.3,37.5,24.8,33.0,27.2,21.0,85,68,46,30.14,30.02,17,10,22,0.00
2013-3-28,59.2,43.2,26.4,36.0,31.0,24.0,92,66,35,30.10,29.97,9,3,18,0.00
2013-3-29,69.1,52.1,31.9,41.0,34.6,29.0,90,56,27,30.05,29.85,17,8,24,0.00
2013-3-30,66.9,56.1,48.3,54.0,44.7,35.0,93,68,33,29.89,29.69,26,7,36,0.40
2013-3-31,57.5,48.1,33.8,43.0,34.1,26.0,93,63,31,29.96,29.75,21,9,30,0.03
2013-4-1,40.3,31.5,23.5,31.0,20.3,15.0,92,66,37,30.18,29.98,15,7,21,0.00
2013-4-2,52.9,38.0,20.3,28.0,23.1,16.0,87,58,37,30.19,30.08,12,2,14,0.00
2013-4-3,56.6,41.0,27.9,29.0,25.8,22.0,82,57,34,30.19,30.05,14,6,19,0.00
2013-4-4,63.3,48.6,28.6,40.0,33.4,24.0,85,58,41,30.06,29.86,11,4,18,0.00
2013-4-5,69.8,52.6,32.9,42.0,36.0,29.0,88,56,33,29.99,29.53,23,11,32,0.00
2013-4-6,70.3,59.2,51.5,48.0,42.2,39.0,72,55,36,29.58,29.39,20,9,33,0.00
2013-4-7,75.7,58.4,41.1,52.0,43.1,37.0,88,60,34,29.66,29.42,16,6,26,0.06
2013-4-8,68.1,57.8,48.9,61.0,54.4,46.0,93,89,75,29.51,29.41,19,6,21,0.04
2013-4-9,63.1,48.6,35.0,60.0,46.7,34.0,95,93,89,29.77,29.36,20,10,35,0.47
2013-4-10,37.9,36.1,32.5,37.0,34.7,31.0,96,94,91,29.80,29.61,17,8,23,0.48
2013-4-11,36.0,32.8,30.3,33.0,30.0,28.0,95,89,83,29.64,29.51,15,8,23,0.01
2013-4-12,41.8,35.8,31.8,31.0,29.7,28.0,88,79,63,29.86,29.57,20,11,28,0.00
2013-4-13,54.9,43.4,28.1,42.0,34.4,25.0,91,72,59,29.88,29.48,25,9,29,0.00
2013-4-14,69.5,54.0,44.3,53.0,43.3,33.0,85,69,45,29.50,29.14,23,11,29,0.05
2013-4-15,45.2,40.3,35.2,33.0,29.4,24.0,78,65,57,29.92,29.49,17,6,21,0.00
2013-4-16,51.6,43.4,36.2,36.0,31.0,29.0,77,63,42,30.07,29.90,18,7,21,0.00
2013-4-17,46.6,42.1,37.3,43.0,38.5,35.0,96,88,65,29.98,29.47,20,9,30,0.74
2013-4-18,37.1,34.4,32.0,35.0,31.4,28.0,95,89,78,29.76,29.53,34,17,42,0.49
2013-4-19,46.6,37.2,29.2,28.0,24.4,22.0,81,62,40,29.95,29.71,24,12,35,0.00
2013-4-20,47.6,37.0,24.3,31.0,25.0,20.0,90,64,42,30.11,29.95,22,7,24,0.00
2013-4-21,68.5,55.6,43.7,51.0,40.1,31.0,92,58,37,29.97,29.79,20,11,33,0.50
2013-4-22,53.8,45.5,33.4,52.0,43.5,30.0,96,93,84,30.02,29.74,24,8,31,1.42
2013-4-23,39.5,33.8,29.6,30.0,26.1,23.0,87,74,59,30.09,29.98,22,12,27,0.00
2013-4-24,60.5,41.6,25.1,39.0,28.1,22.0,87,63,30,30.07,29.86,20,4,30,0.00
2013-4-25,69.6,51.3,30.4,39.0,34.1,27.0,91,57,28,30.09,29.84,17,5,26,0.00
2013-4-26,70.7,58.4,48.3,52.0,45.0,38.0,89,62,45,29.98,29.83,20,8,25,0.00
2013-4-27,68.2,55.2,43.6,52.0,47.8,42.0,96,78,54,30.01,29.75,9,3,15,0.00
2013-4-28,82.2,64.3,46.9,56.0,50.0,45.0,93,65,34,29.76,29.47,14,6,21,0.00
2013-4-29,85.8,69.2,54.8,59.0,54.4,50.0,90,63,31,29.54,29.29,12,4,17,0.00
2013-4-30,75.8,70.3,60.7,58.0,52.4,46.0,64,54,44,29.65,29.26,19,8,24,0.01
2013-5-1,60.4,43.7,33.3,48.0,38.1,32.0,94,82,57,30.23,29.65,23,11,33,0.85
2013-5-2,48.5,39.9,32.5,34.0,31.3,29.0,95,73,51,30.36,30.23,24,10,33,0.24
2013-5-3,46.0,39.9,31.6,34.0,30.2,27.0,85,69,56,30.22,29.87,26,9,26,0.00
2013-5-4,43.8,39.8,35.5,41.0,36.9,33.0,93,89,79,29.97,29.80,22,11,31,0.05
2013-5-5,54.5,47.2,41.8,49.0,44.1,40.0,94,89,81,30.00,29.92,14,7,16,0.02
2013-5-6,67.2,54.9,47.8,55.0,49.4,46.0,94,83,62,29.96,29.83,8,3,12,0.00
2013-5-7,74.0,61.7,44.8,57.0,51.8,44.0,96,72,49,29.89,29.73,12,3,16,0.00
2013-5-8,69.4,63.6,57.0,59.0,56.1,52.0,90,77,64,29.75,29.67,10,3,15,0.03
2013-5-9,68.1,60.7,57.1,59.0,56.8,55.0,95,87,66,29.77,29.63,18,7,25,0.74
2013-5-10,69.5,58.0,50.1,55.0,49.2,47.0,90,74,47,29.89,29.77,14,7,18,0.00
2013-5-11,60.5,54.9,46.1,48.0,33.9,26.0,85,48,28,30.06,29.82,26,10,34,0.00
2013-5-12,66.3,51.2,31.8,37.0,30.0,24.0,90,50,24,30.10,29.92,8,2,12,0.00
2013-5-13,83.9,66.8,46.9,54.0,44.8,31.0,77,48,27,29.92,29.63,19,6,26,0.00
2013-5-14,101.7,82.4,60.1,61.0,55.1,47.0,85,45,16,29.62,29.39,17,5,26,0.00
2013-5-15,83.6,74.2,65.6,56.0,47.4,41.0,58,40,24,29.66,29.51,19,8,25,0.00
2013-5-16,85.9,73.4,59.4,65.0,58.0,50.0,83,60,44,29.63,29.51,13,4,19,0.00
2013-5-17,86.8,75.4,63.0,64.0,60.9,59.0,86,63,43,29.66,29.57,13,5,22,0.00
2013-5-18,85.0,75.4,61.1,68.0,63.7,58.0,90,68,50,29.65,29.44,22,10,30,0.00
2013-5-19,80.4,66.4,60.3,68.0,61.7,57.0,94,85,65,29.55,29.25,30,8,39,0.54
2013-5-20,77.9,67.5,57.3,59.0,55.9,51.0,92,69,48,29.44,29.28,19,5,27,0.00
2013-5-21,65.2,60.4,55.6,56.0,50.9,47.0,84,72,55,29.52,29.39,14,5,26,0.00
2013-5-22,60.0,55.9,52.1,53.0,49.7,48.0,89,80,70,29.76,29.51,16,9,24,0.00
2013-5-23,72.6,60.8,52.0,53.0,48.5,45.0,88,67,38,30.01,29.77,15,7,19,0.00
2013-5-24,75.4,64.1,49.7,54.0,48.6,44.0,80,59,40,30.07,29.79,26,12,30,0.00
2013-5-25,80.5,69.6,59.0,70.0,60.9,48.0,94,75,55,29.89,29.71,25,11,28,0.34
2013-5-26,84.9,73.6,65.1,72.0,66.6,62.0,91,79,64,29.75,29.58,19,10,24,0.00
2013-5-27,76.5,67.8,60.0,66.0,62.8,59.0,95,84,68,29.66,29.36,24,10,28,1.32
2013-5-28,80.7,70.7,62.5,68.0,64.1,61.0,96,81,59,29.49,29.36,19,4,22,0.04
2013-5-29,76.1,68.7,63.2,72.0,65.1,61.0,94,88,81,29.49,29.30,22,11,34,0.71
2013-5-30,75.7,66.0,59.5,65.0,60.7,54.0,95,83,66,29.40,29.27,20,9,24,0.41
2013-5-31,80.1,69.5,55.9,57.0,53.5,49.0,89,60,35,29.49,29.39,13,4,20,0.00
2013-6-1,63.9,58.8,55.0,55.0,51.3,48.0,89,76,58,29.81,29.44,24,10,31,0.03
2013-6-2,69.1,58.6,51.5,49.0,47.1,45.0,86,67,45,29.92,29.80,14,5,19,0.00
2013-6-3,75.1,63.8,51.8,56.0,50.9,47.0,83,65,40,29.84,29.59,21,11,30,0.00
2013-6-4,72.1,66.2,59.5,65.0,60.7,55.0,95,83,72,29.76,29.63,21,7,24,0.72
2013-6-5,73.3,64.9,57.6,64.0,55.0,50.0,95,72,46,29.83,29.72,14,5,21,0.06
2013-6-6,71.8,63.6,54.4,57.0,52.4,50.0,87,68,50,29.78,29.73,13,4,16,0.00
2013-6-7,73.3,62.9,52.0,56.0,52.3,50.0,93,70,48,29.82,29.67,8,3,11,0.00
2013-6-8,72.7,63.5,57.6,64.0,57.5,51.0,93,81,60,29.68,29.43,18,9,27,0.83
2013-6-9,69.5,64.2,60.0,62.0,59.2,57.0,94,84,72,29.61,29.49,14,6,22,0.08
2013-6-10,79.0,66.6,55.8,67.0,60.9,54.0,95,83,61,29.68,29.54,13,4,16,0.00
2013-6-11,90.2,76.5,68.4,72.0,67.2,64.0,89,75,45,29.59,29.44,13,6,20,0.00
2013-6-12,88.0,78.0,64.1,74.0,66.3,55.0,84,68,52,29.77,29.41,23,10,31,0.00
2013-6-13,78.0,67.6,57.2,63.0,57.8,54.0,90,72,45,29.88,29.74,9,3,13,0.01
2013-6-14,89.6,74.0,63.6,74.0,65.9,59.0,96,77,59,29.79,29.51,31,11,43,1.28
2013-6-15,83.4,74.5,66.8,71.0,66.9,62.0,93,78,57,29.71,29.57,20,6,24,0.05
2013-6-16,85.9,75.4,66.2,72.0,66.7,62.0,97,76,48,29.75,29.68,12,2,18,0.00
2013-6-17,87.5,77.4,65.6,66.0,61.8,58.0,92,62,37,29.77,29.68,11,3,16,0.00
2013-6-18,85.0,72.9,62.6,65.0,59.8,52.0,90,66,34,29.83,29.72,9,2,10,0.02
2013-6-19,86.3,75.8,64.6,69.0,64.0,58.0,87,68,46,29.77,29.65,16,8,24,0.00
2013-6-20,89.6,80.3,68.9,75.0,70.4,65.0,88,73,58,29.71,29.55,24,12,33,0.00
2013-6-21,94.7,85.0,77.7,75.0,72.8,71.0,82,68,50,29.61,29.50,18,11,31,0.00
2013-6-22,91.2,82.2,72.7,74.0,68.6,61.0,77,64,49,29.73,29.51,27,11,32,0.00
2013-6-23,81.2,74.3,64.9,72.0,68.6,63.0,95,83,69,29.67,29.50,22,7,29,0.68
2013-6-24,82.1,76.0,65.2,75.0,70.9,63.0,93,84,74,29.72,29.41,32,9,53,0.27
2013-6-25,86.9,79.6,71.1,77.0,71.7,65.0,90,77,66,29.56,29.40,15,6,26,0.02
2013-6-26,90.6,81.1,72.0,74.0,69.8,64.0,95,71,42,29.63,29.40,13,4,20,0.00
2013-6-27,86.1,73.4,66.3,73.0,67.9,63.0,91,83,61,29.76,29.62,12,2,16,0.23
2013-6-28,85.0,76.9,68.7,70.0,62.8,57.0,94,65,39,29.74,29.64,22,7,35,0.00
2013-6-29,79.6,71.8,61.7,61.0,58.5,56.0,83,64,47,29.71,29.64,26,7,32,0.00
2013-6-30,78.1,67.9,57.1,61.0,56.3,52.0,95,69,44,29.87,29.71,12,3,16,0.00
2013-7-1,82.5,69.1,52.9,59.0,55.4,52.0,95,66,39,29.96,29.86,11,2,13,0.00
2013-7-2,85.1,69.5,57.0,64.0,58.7,55.0,95,72,38,29.93,29.81,9,1,19,0.00
2013-7-3,86.1,70.2,56.4,66.0,59.7,55.0,96,72,39,29.83,29.71,17,3,21,0.01
2013-7-4,85.3,74.0,60.1,65.0,59.3,55.0,83,62,41,29.76,29.64,16,6,23,0.00
2013-7-5,86.5,77.4,65.6,69.0,64.0,58.0,78,64,51,29.67,29.58,18,8,22,0.00
2013-7-6,87.2,77.1,69.7,70.0,66.1,62.0,78,69,57,29.63,29.54,18,10,27,0.00
2013-7-7,95.6,83.4,73.6,76.0,68.8,63.0,77,62,43,29.64,29.55,14,6,24,0.00
2013-7-8,92.0,81.4,77.4,76.0,71.5,67.0,85,72,57,29.70,29.63,11,3,14,0.00
2013-7-9,97.5,85.4,74.9,78.0,74.1,70.0,86,70,50,29.68,29.60,10,4,14,0.00
2013-7-10,84.9,77.8,67.3,72.0,67.4,64.0,89,71,54,29.82,29.68,12,3,13,0.00
2013-7-11,84.3,73.7,62.6,66.0,62.9,59.0,93,71,51,29.85,29.71,15,6,20,0.00
2013-7-12,88.2,77.3,67.5,74.0,66.3,60.0,80,69,60,29.75,29.65,20,11,26,0.00
2013-7-13,86.5,78.6,70.4,75.0,68.5,62.0,79,71,63,29.72,29.65,18,11,22,0.00
2013-7-14,85.0,76.9,69.0,67.0,64.5,61.0,82,67,48,29.89,29.71,18,8,27,0.00
2013-7-15,87.2,75.5,62.7,73.0,67.2,60.0,93,77,57,29.95,29.85,15,4,17,0.00
2013-7-16,89.6,79.6,67.2,72.0,69.1,65.0,93,72,51,30.00,29.91,8,3,12,0.00
2013-7-17,92.4,82.5,71.6,75.0,71.8,69.0,92,71,51,30.04,29.89,7,3,13,0.00
2013-7-18,94.1,83.9,71.7,73.0,70.5,68.0,88,66,46,29.91,29.66,11,5,19,0.00
2013-7-19,94.3,84.6,72.1,74.0,68.4,63.0,80,59,36,29.68,29.60,7,3,13,0.00
2013-7-20,86.9,76.9,65.6,68.0,64.2,60.0,85,67,41,29.73,29.59,9,3,14,0.00
2013-7-21,88.6,77.5,69.6,74.0,70.0,66.0,93,79,59,29.67,29.50,11,3,35,0.48
2013-7-22,92.9,81.0,68.2,79.0,73.4,65.0,95,78,56,29.59,29.47,10,2,14,0.01
2013-7-23,80.8,73.4,66.0,68.0,65.0,62.0,91,75,63,29.78,29.57,13,4,17,0.09
2013-7-24,83.5,72.0,59.3,67.0,62.8,57.0,94,75,49,29.84,29.74,11,3,15,0.00
2013-7-25,80.8,72.9,67.6,70.0,65.6,62.0,90,78,61,29.80,29.74,10,4,17,0.00
2013-7-26,77.9,70.6,61.1,67.0,60.0,54.0,95,72,45,29.87,29.72,18,6,26,0.00
2013-7-27,73.3,63.9,52.3,55.0,50.8,47.0,95,66,42,29.90,29.78,14,4,21,0.00
2013-7-28,78.5,64.2,46.0,57.0,51.1,45.0,96,66,39,29.85,29.78,7,2,11,0.00
2013-7-29,66.8,63.0,58.4,64.0,58.5,52.0,95,85,68,29.83,29.77,14,7,18,0.11
2013-7-30,75.4,69.6,64.7,68.0,65.8,64.0,97,88,76,29.87,29.78,9,3,12,0.01
2013-7-31,86.5,73.8,61.4,71.0,66.0,60.0,97,79,53,29.90,29.79,6,1,8,0.00
2013-8-1,85.5,72.0,62.2,71.0,66.2,61.0,96,83,56,29.85,29.60,20,5,29,0.18
2013-8-2,83.7,74.9,67.3,71.0,67.1,61.0,92,77,62,29.75,29.56,14,5,26,0.00
2013-8-3,78.8,70.6,63.5,63.0,60.5,58.0,85,71,54,29.93,29.77,13,4,16,0.00
2013-8-4,77.3,69.6,60.5,68.0,61.9,56.0,89,77,62,29.93,29.78,15,6,24,0.00
2013-8-5,87.8,75.1,67.7,76.0,70.8,65.0,95,87,67,29.79,29.59,13,4,21,0.00
2013-8-6,90.4,78.1,69.8,77.0,72.0,66.0,96,82,62,29.68,29.53,19,3,19,0.00
2013-8-7,85.1,76.7,68.7,74.0,65.8,59.0,95,71,43,29.74,29.56,10,3,14,0.00
2013-8-8,77.5,69.5,62.8,68.0,63.6,60.0,92,82,63,29.78,29.69,6,3,7,0.00
2013-8-9,81.5,71.1,61.3,70.0,63.9,58.0,97,79,56,29.90,29.77,10,2,14,0.00
2013-8-10,83.4,69.9,55.0,66.0,60.8,54.0,96,75,49,29.96,29.84,12,4,15,0.00
2013-8-11,87.8,76.6,65.5,71.0,66.5,61.0,88,72,54,29.88,29.72,11,4,16,0.00
2013-8-12,85.3,75.8,68.5,71.0,66.7,61.0,95,75,47,29.81,29.73,8,3,13,0.02
2013-8-13,78.9,70.4,62.4,63.0,59.4,57.0,87,69,47,29.92,29.82,9,3,13,0.00
2013-8-14,76.2,66.1,57.1,63.0,59.1,54.0,91,79,56,29.96,29.84,10,4,14,0.02
2013-8-15,66.0,63.0,59.8,62.0,60.2,59.0,96,90,84,29.87,29.80,14,9,24,0.65
2013-8-16,73.9,66.4,61.6,62.0,59.8,58.0,91,80,63,29.94,29.86,16,6,19,0.00
2013-8-17,78.0,68.3,59.0,62.0,59.3,57.0,94,75,53,29.96,29.87,13,4,18,0.00
2013-8-18,80.2,68.0,53.9,65.0,59.5,52.0,95,76,54,29.92,29.80,13,4,18,0.00
2013-8-19,86.1,74.6,64.1,72.0,66.6,61.0,90,77,59,29.84,29.68,18,6,23,0.00
2013-8-20,89.1,79.0,69.0,73.0,69.7,66.0,91,74,57,29.71,29.64,13,6,17,0.00
2013-8-21,92.6,80.7,69.5,75.0,70.6,66.0,90,73,54,29.74,29.67,14,5,17,0.00
2013-8-22,83.0,76.5,70.0,72.0,69.0,66.0,91,78,63,29.84,29.70,15,6,16,0.00
2013-8-23,89.2,78.5,68.7,75.0,70.5,67.0,94,78,54,29.82,29.70,19,6,21,0.00
2013-8-24,90.8,81.7,73.8,76.0,72.2,69.0,85,73,59,29.80,29.72,19,9,29,0.00
2013-8-25,95.1,83.5,73.3,77.0,73.0,70.0,88,72,51,29.85,29.75,15,8,18,0.00
2013-8-26,96.2,84.7,72.5,76.0,72.4,69.0,90,68,48,29.81,29.67,14,6,19,0.00
2013-8-27,97.0,85.4,76.4,74.0,70.7,67.0,76,63,45,29.69,29.62,13,4,16,0.00
2013-8-28,96.7,81.7,69.0,74.0,67.7,64.0,85,65,36,29.72,29.65,15,3,15,0.00
2013-8-29,95.6,83.0,71.6,77.0,72.5,67.0,91,72,49,29.73,29.62,15,4,21,0.00
2013-8-30,98.9,84.8,71.6,80.0,72.9,68.0,87,69,44,29.63,29.54,8,2,15,0.00
2013-8-31,94.0,80.8,71.9,76.0,72.7,70.0,95,78,50,29.61,29.50,7,2,11,0.00
2013-9-1,83.1,75.4,66.2,71.0,64.6,59.0,94,71,45,29.74,29.49,19,6,28,0.04
2013-9-2,80.4,68.2,56.3,62.0,56.3,48.0,96,70,32,29.85,29.74,11,2,15,0.00
2013-9-3,86.7,69.0,50.8,64.0,58.8,50.0,96,73,46,29.87,29.77,10,2,13,0.00
2013-9-4,86.2,74.3,66.1,67.0,63.4,60.0,83,70,50,29.91,29.79,10,3,15,0.00
2013-9-5,85.4,74.7,67.7,70.0,65.6,63.0,91,74,54,29.94,29.83,20,5,20,0.07
2013-9-6,92.5,79.1,65.3,74.0,67.5,62.0,88,69,49,29.84,29.64,16,8,21,0.00
2013-9-7,93.8,80.2,71.4,75.0,70.0,64.0,91,72,45,29.65,29.56,16,4,22,0.05
2013-9-8,92.8,79.8,69.2,77.0,72.5,68.0,96,80,54,29.65,29.51,17,5,18,0.00
2013-9-9,98.8,85.9,75.5,73.0,65.3,60.0,85,53,29,29.57,29.50,12,5,22,0.00
2013-9-10,96.9,81.4,68.9,70.0,65.6,61.0,90,61,38,29.78,29.58,16,4,30,0.12
2013-9-11,82.5,74.3,68.7,73.0,69.9,67.0,97,87,71,29.86,29.77,28,2,28,1.01
2013-9-12,79.4,71.7,57.9,69.0,59.0,51.0,94,67,39,29.96,29.86,10,4,15,0.00
2013-9-13,75.1,62.7,50.4,56.0,52.4,49.0,95,72,44,29.99,29.83,11,2,12,0.00
2013-9-14,78.0,65.3,52.7,58.0,53.2,48.0,89,67,45,29.85,29.63,17,7,24,0.00
2013-9-15,69.7,65.5,62.8,65.0,58.9,54.0,95,79,62,29.99,29.61,13,5,17,0.44
2013-9-16,67.8,61.3,55.4,56.0,54.5,52.0,91,79,66,30.08,29.96,17,8,20,0.00
2013-9-17,76.1,64.7,57.4,70.0,62.1,56.0,96,91,78,29.96,29.64,15,7,23,0.14
2013-9-18,90.8,78.4,67.4,72.0,68.6,65.0,93,74,50,29.65,29.43,18,10,27,0.00
2013-9-19,84.3,72.5,60.1,69.0,63.7,52.0,92,74,58,29.75,29.46,19,6,24,0.18
2013-9-20,70.6,59.5,48.4,54.0,49.2,46.0,90,71,43,29.85,29.73,19,6,24,0.00
2013-9-21,77.0,60.2,43.0,55.0,49.1,42.0,96,71,42,29.82,29.63,12,4,17,0.00
2013-9-22,81.1,67.3,52.5,59.0,53.6,50.0,91,64,36,29.66,29.55,19,8,31,0.00
2013-9-23,77.3,65.9,54.2,57.0,53.1,50.0,87,65,44,29.60,29.46,24,13,35,0.00
2013-9-24,71.8,64.9,55.3,60.0,57.0,53.0,94,76,64,29.66,29.45,20,6,33,0.00
2013-9-25,80.0,65.1,49.7,61.0,56.8,49.0,97,77,51,29.68,29.50,15,5,24,0.00
2013-9-26,87.3,73.3,61.4,63.0,60.7,59.0,91,67,41,29.56,29.47,30,14,39,0.00
2013-9-27,88.7,77.2,70.1,64.0,61.6,60.0,75,60,39,29.58,29.49,23,12,35,0.00
2013-9-28,74.4,62.3,48.2,64.0,52.5,44.0,93,72,46,29.82,29.40,28,8,31,0.40
2013-9-29,77.6,61.1,45.0,50.0,45.1,42.0,90,60,32,29.84,29.65,12,4,18,0.00
2013-9-30,81.4,66.0,53.1,54.0,51.4,47.0,85,62,37,29.67,29.46,16,6,20,0.00
2013-10-1,79.7,66.5,53.2,57.0,53.5,50.0,89,65,43,29.70,29.53,10,2,13,0.00
2013-10-2,85.6,70.7,55.3,67.0,60.7,51.0,94,73,47,29.72,29.56,14,6,23,0.00
2013-10-3,82.4,70.2,59.7,69.0,63.5,58.0,96,81,59,29.62,29.44,18,5,31,4.41
2013-10-4,84.5,68.0,52.8,73.0,61.4,40.0,97,81,54,29.67,29.36,20,11,30,0.47
2013-10-5,53.6,47.7,42.6,41.0,35.8,34.0,82,64,51,29.71,29.60,19,4,25,0.00
2013-10-6,50.3,46.5,41.9,46.0,42.4,38.0,92,85,75,29.80,29.56,21,7,30,0.03
2013-10-7,75.4,57.9,42.8,46.0,41.7,38.0,88,59,30,29.87,29.76,9,3,13,0.00
2013-10-8,78.0,63.4,48.4,50.0,45.6,42.0,79,54,35,29.77,29.65,22,8,30,0.00
2013-10-9,78.5,64.4,52.9,55.0,50.9,47.0,82,63,43,29.76,29.68,22,10,29,0.00
2013-10-10,80.5,66.5,54.0,59.0,53.7,49.0,83,65,45,29.75,29.55,25,11,33,0.00
2013-10-11,79.5,66.9,54.5,61.0,51.7,42.0,81,62,28,29.64,29.38,21,10,35,0.00
2013-10-12,66.9,53.8,41.6,45.0,38.4,33.0,84,60,29,30.05,29.65,13,4,19,0.00
2013-10-13,69.2,52.2,35.3,46.0,37.3,34.0,95,63,30,30.20,30.06,13,5,17,0.00
2013-10-14,60.2,54.0,48.5,59.0,46.6,35.0,96,77,52,30.07,29.50,29,12,36,0.85
2013-10-15,53.6,48.6,45.9,51.0,41.7,38.0,93,77,68,29.85,29.58,26,8,29,0.00
2013-10-16,56.2,47.1,39.9,41.0,37.4,31.0,86,71,38,29.87,29.76,13,5,19,0.00
2013-10-17,61.1,46.7,33.5,44.0,37.9,30.0,92,73,47,29.84,29.68,20,6,26,0.00
2013-10-18,50.3,41.7,35.0,39.0,32.7,29.0,89,72,45,29.93,29.81,10,3,14,0.00
2013-10-19,62.3,46.6,32.1,38.0,34.2,29.0,89,65,38,29.81,29.61,17,2,25,0.00
2013-10-20,64.7,52.4,42.9,45.0,39.6,36.0,77,63,41,29.80,29.50,16,5,23,0.00
2013-10-21,54.1,42.9,31.5,38.0,34.7,29.0,92,74,53,29.91,29.73,9,2,14,0.00
2013-10-22,48.5,43.8,38.3,42.0,37.1,32.0,88,77,69,29.92,29.66,25,6,27,0.00
2013-10-23,47.7,39.4,29.4,39.0,34.6,28.0,94,83,68,30.00,29.86,8,3,14,0.00
2013-10-24,49.0,39.0,29.1,34.0,27.8,24.0,88,66,41,30.21,30.00,15,4,22,0.00
2013-10-25,59.4,43.5,28.0,35.0,29.1,23.0,82,60,39,30.22,29.86,13,3,19,0.00
2013-10-26,51.0,44.1,30.5,36.0,32.5,26.0,84,65,45,30.00,29.81,16,5,21,0.00
2013-10-27,70.3,47.8,26.6,40.0,32.5,24.0,89,60,32,29.94,29.63,11,4,21,0.00
2013-10-28,54.6,46.7,40.1,40.0,36.8,34.0,81,69,55,29.96,29.73,23,8,28,0.00
2013-10-29,53.9,48.0,43.0,53.0,45.6,39.0,96,91,72,29.96,29.72,17,7,25,0.11
2013-10-30,57.2,49.9,43.3,56.0,48.8,41.0,97,96,92,29.73,29.54,13,4,22,0.23
2013-10-31,57.4,45.2,37.9,47.0,39.9,37.0,96,83,57,29.55,29.30,15,3,18,0.00
2013-11-1,60.0,47.1,38.0,43.0,38.8,35.0,90,74,44,29.78,29.39,19,7,34,0.00
2013-11-2,57.7,45.2,33.9,40.0,35.0,31.0,90,70,41,29.99,29.77,13,4,20,0.00
2013-11-3,57.2,49.6,39.9,40.0,36.1,32.0,75,61,46,29.88,29.53,29,14,44,0.00
2013-11-4,56.0,49.4,36.4,45.0,40.1,33.0,92,71,54,29.91,29.57,15,5,21,0.00
2013-11-5,46.4,42.5,35.1,45.0,39.3,33.0,96,89,75,29.92,29.60,20,7,27,1.24
2013-11-6,42.4,36.6,30.8,35.0,32.5,29.0,93,85,73,30.08,29.84,19,6,25,0.00
2013-11-7,48.6,37.3,30.7,33.0,27.4,24.0,92,70,38,30.21,30.08,15,4,20,0.00
2013-11-8,64.3,48.5,32.6,39.0,33.7,26.0,78,59,35,30.08,29.54,28,9,36,0.00
2013-11-9,60.5,48.7,40.1,38.0,35.6,33.0,84,62,41,30.13,29.70,16,4,22,0.00
2013-11-10,53.0,43.2,28.3,38.0,31.4,26.0,91,65,42,30.20,29.94,12,4,16,0.00
2013-11-11,47.3,34.1,19.4,42.0,26.5,11.0,93,74,57,30.57,29.89,19,8,26,0.00
2013-11-12,32.9,21.7,11.6,13.0,10.0,7.0,84,63,35,30.73,30.42,9,4,13,0.00
2013-11-13,53.3,37.4,21.8,30.0,22.0,12.0,70,55,40,30.41,29.81,17,7,23,0.00
2013-11-14,53.9,41.8,33.2,36.0,29.3,24.0,86,62,45,29.81,29.68,7,1,12,0.00
2013-11-15,56.1,42.2,27.0,43.0,34.1,24.0,90,75,51,29.70,29.39,15,6,22,0.00
2013-11-16,65.8,53.3,41.9,54.0,42.2,32.0,93,69,39,29.39,29.09,22,7,24,0.00
2013-11-17,57.6,48.8,38.0,45.0,37.9,33.0,84,67,51,29.84,29.07,17,6,26,0.06
2013-11-18,57.7,41.4,26.1,34.0,27.5,23.0,90,62,28,30.05,29.84,6,2,17,0.00
2013-11-19,62.1,49.3,36.5,36.0,29.5,26.0,69,49,31,29.98,29.66,23,12,37,0.00
2013-11-20,57.2,47.3,37.1,39.0,34.8,29.0,89,63,46,29.71,29.52,21,12,28,0.00
2013-11-21,37.3,29.5,21.6,35.0,25.2,18.0,93,84,74,30.37,29.71,22,12,30,0.00
2013-11-22,27.8,20.2,14.6,18.0,11.7,8.0,85,70,52,30.54,30.38,18,6,22,0.00
2013-11-23,23.6,17.0,9.1,15.0,7.0,3.0,81,65,46,30.73,30.47,15,5,19,0.00
2013-11-24,29.6,20.4,9.7,16.0,10.8,4.0,80,67,54,30.60,30.06,15,7,22,0.00
2013-11-25,43.3,33.2,26.0,30.0,23.3,14.0,81,67,57,30.05,29.92,12,4,17,0.00
2013-11-26,32.1,26.1,17.1,24.0,15.9,8.0,87,67,44,30.24,30.00,25,9,35,0.00
2013-11-27,32.8,22.4,8.1,19.0,12.1,5.0,87,66,46,30.24,29.87,15,4,21,0.00
2013-11-28,33.9,27.0,16.3,22.0,18.0,12.0,84,70,54,30.30,29.89,18,6,27,0.00
2013-11-29,45.2,30.8,15.6,29.0,22.1,12.0,88,72,53,30.30,29.94,18,8,24,0.00
2013-11-30,56.3,38.1,24.6,34.0,27.4,21.0,85,67,42,29.94,29.84,7,1,15,0.00
2013-12-1,49.3,34.8,21.2,30.0,26.2,19.0,93,73,47,29.95,29.66,7,2,11,0.00
2013-12-2,63.5,44.1,29.5,37.0,32.5,26.0,88,67,37,29.65,29.30,11,4,14,0.00
2013-12-3,44.3,38.1,32.5,37.0,33.2,30.0,91,83,74,29.47,29.26,9,4,14,0.00
2013-12-4,35.5,23.0,16.8,33.0,18.9,9.0,94,84,70,29.88,29.41,24,12,32,0.00
2013-12-5,16.9,12.0,7.8,9.0,1.7,-5.0,75,64,52,30.28,29.89,22,12,30,0.00
2013-12-6,12.3,5.9,0.1,-3.0,-4.6,-8.0,74,63,51,30.57,30.28,14,9,21,0.00
2013-12-7,12.9,5.5,-2.9,3.0,-3.4,-8.0,81,67,54,30.62,30.27,15,4,17,0.00
2013-12-8,18.6,13.9,7.6,16.0,10.1,1.0,89,85,60,30.26,29.85,18,8,24,0.00
2013-12-9,14.6,4.6,-3.6,7.0,-1.7,-8.0,87,75,62,30.20,29.94,12,5,19,0.00
2013-12-10,28.0,21.8,14.2,23.0,13.7,8.0,86,71,59,30.11,29.92,10,4,15,0.00
2013-12-11,28.8,9.6,2.9,26.0,1.8,-5.0,91,71,61,30.50,30.07,21,7,27,0.00
2013-12-12,32.5,19.9,5.6,23.0,12.7,-1.0,86,74,62,30.32,29.92,9,2,9,0.00
2013-12-13,30.2,22.9,13.0,25.0,19.0,10.0,89,85,79,29.91,29.70,11,4,17,0.00
2013-12-14,22.9,17.9,11.6,19.0,13.5,9.0,91,83,75,30.04,29.89,13,7,20,0.00
2013-12-15,28.6,20.7,12.5,22.0,16.7,10.0,90,84,75,30.00,29.79,12,3,12,0.00
2013-12-16,45.6,26.7,11.0,34.0,21.6,8.0,91,81,62,29.98,29.80,20,2,23,0.00
2013-12-17,41.0,32.2,26.9,29.0,22.7,17.0,90,70,41,30.09,29.91,18,4,27,0.00
2013-12-18,57.9,40.4,27.7,34.0,27.7,21.0,83,62,41,29.90,29.49,12,3,15,0.00
2013-12-19,35.5,30.1,19.9,29.0,24.8,18.0,90,81,72,29.68,29.50,16,6,22,0.00
2013-12-20,19.7,16.1,13.4,17.0,12.8,10.0,90,86,83,29.80,29.68,21,8,23,0.00
2013-12-21,24.7,21.1,18.2,20.0,16.5,14.0,89,82,77,29.73,29.61,13,4,15,0.00
2013-12-22,21.9,16.7,8.9,19.0,10.9,2.0,91,78,65,30.23,29.68,18,10,24,0.00
2013-12-23,10.9,4.7,-3.5,2.0,-4.3,-10.0,76,67,52,30.46,30.23,18,8,23,0.00
2013-12-24,25.4,12.8,-2.3,23.0,7.5,-9.0,93,79,72,30.40,29.99,26,8,32,0.00
2013-12-25,25.6,24.2,21.7,23.0,20.3,18.0,88,85,83,30.07,30.05,15,9,22,0.00
2013-12-26,47.1,36.9,25.8,26.0,23.5,19.0,81,60,43,30.05,29.90,10,1,12,0.00
2013-12-27,62.1,38.7,21.3,34.0,26.1,17.0,87,64,29,30.06,29.85,11,2,15,0.00
2013-12-28,57.8,40.3,16.8,32.0,27.0,9.0,80,62,34,29.91,29.52,28,7,41,0.00
2013-12-29,15.4,8.5,2.2,7.0,-6.4,-13.0,73,53,30,30.20,29.91,33,12,39,0.00
2013-12-30,34.1,17.6,2.1,24.0,4.9,-6.0,77,58,45,30.14,29.90,18,7,30,0.00
2013-12-31,34.0,17.3,7.2,21.0,10.3,3.0,85,75,60,30.11,29.83,18,6,25,0.00
2014-1-1,11.3,8.2,2.3,6.0,3.2,-3.0,85,80,74,30.25,29.95,17,7,19,0.00
2014-1-2,9.2,2.8,-3.5,1.0,-3.3,-9.0,83,76,62,30.33,30.23,8,4,12,0.00